Location: Calimesa Mobile Home Ranch
(33.9736°N, 117.0370°W)
Time: 23:10:16
(UTC+00:00)

RS-15 - Visible Passes

Search period start: 15 September 2024 00:00
Search period end: 25 September 2024 00:00
Orbit: 1898 x 2146 km, 64.8° (Epoch: 15 September)

Date Brightness Start Highest point End Pass type
(mag) Time Alt. Az. Time Alt. Az. Time Alt. Az.
15 Sep 8.7 03:16:58 10° SW 03:28:25 56° NW 03:39:26 10° NNE visible
15 Sep 10.1 05:37:32 10° WNW 05:44:01 16° NNW 05:50:25 10° N visible
15 Sep 10.2 08:01:01 10° N 08:03:41 11° NNE 08:06:21 10° NNE visible
15 Sep 9.2 10:11:40 10° NNW 10:21:13 33° NE 10:30:42 10° ESE visible
15 Sep 7.9 12:23:31 10° NW 12:34:17 68° WSW 12:45:12 10° SSE visible
16 Sep 8.4 02:40:26 10° SW 02:52:13 72° WNW 03:03:30 10° NNE visible
16 Sep 9.9 04:59:03 10° W 05:06:56 20° NW 05:14:41 10° N visible
16 Sep 10.2 07:25:28 10° N 07:26:09 10° N 07:26:48 10° N visible
16 Sep 9.5 09:35:53 10° NNW 09:44:33 26° NE 09:53:08 10° E visible
16 Sep 7.9 11:47:23 10° NNW 11:58:21 88° WSW 12:09:25 10° SSE visible
17 Sep 8.2 02:04:16 10° SSW 02:16:08 90° ESE 02:27:30 10° NNE visible
17 Sep 9.7 04:20:59 10° W 04:30:04 26° NW 04:38:56 10° NNE visible
17 Sep 10.2 06:47:44 10° N 06:48:33 10° N 06:49:21 10° N visible
17 Sep 9.7 09:00:08 10° N 09:07:41 20° NE 09:15:09 10° ENE visible
17 Sep 8.1 11:11:21 10° NNW 11:22:18 73° ENE 11:33:18 10° SE visible
18 Sep 9.5 03:43:19 10° WSW 03:53:23 33° NW 04:03:09 10° NNE visible
18 Sep 10.2 06:08:10 10° NNW 06:10:59 11° NNW 06:13:48 10° N visible
18 Sep 9.9 08:24:24 10° N 08:30:37 16° NNE 08:36:46 10° ENE visible
18 Sep 8.4 10:35:24 10° NNW 10:46:08 56° NE 10:56:52 10° SE visible
18 Sep 8.3 12:48:28 10° NW 12:57:52 35° WSW 13:07:27 10° SSW visible
19 Sep 9.2 03:06:02 10° WSW 03:16:51 42° NW 03:27:20 10° NNE visible
19 Sep 10.1 05:28:55 10° NW 05:33:32 13° NNW 05:38:06 10° N visible
19 Sep 10.0 07:48:42 10° N 07:53:22 13° NNE 07:58:00 10° NE visible
19 Sep 8.7 09:59:31 10° NNW 10:09:49 44° NE 10:20:05 10° ESE visible
19 Sep 8.0 12:11:55 10° NW 12:22:08 49° WSW 12:32:32 10° S visible
20 Sep 8.8 02:29:07 10° SW 02:40:30 54° NW 02:51:28 10° NNE visible
20 Sep 10.1 04:49:59 10° WNW 04:56:14 16° NNW 05:02:25 10° N visible
20 Sep 10.1 07:13:01 10° N 07:15:56 11° NNE 07:18:52 10° NNE visible
20 Sep 9.1 09:23:42 10° NNW 09:33:21 34° NE 09:42:57 10° ESE visible
20 Sep 7.8 11:35:35 10° NW 11:46:19 65° WSW 11:57:11 10° SSE visible
21 Sep 8.5 01:52:33 10° SW 02:04:18 69° WNW 02:15:33 10° NNE visible
21 Sep 10.0 04:11:27 10° WNW 04:19:08 20° NNW 04:26:41 10° N visible
21 Sep 10.2 06:37:27 10° N 06:38:24 10° N 06:39:22 10° N visible
21 Sep 9.4 08:47:53 10° NNW 08:56:42 26° NE 09:05:25 10° E visible
21 Sep 7.7 10:59:26 10° NNW 11:10:24 85° WSW 11:21:27 10° SSE visible
22 Sep 9.8 03:33:19 10° W 03:42:14 25° NW 03:50:56 10° NNE visible
22 Sep 10.2 06:00:32 10° N 06:00:50 10° N 06:01:07 10° N visible
22 Sep 9.6 08:12:08 10° N 08:19:52 21° NE 08:27:30 10° E visible
22 Sep 7.9 10:23:23 10° NNW 10:34:21 76° ENE 10:45:24 10° SE visible
22 Sep 8.6 12:37:36 10° NW 12:45:30 24° WSW 12:53:32 10° SSW visible
23 Sep 9.6 02:55:35 10° WSW 03:05:31 32° NW 03:15:09 10° NNE visible
23 Sep 10.1 05:20:44 10° NNW 05:23:15 11° N 05:25:46 10° N visible
23 Sep 9.8 07:36:24 10° N 07:42:49 17° NNE 07:49:11 10° ENE visible
23 Sep 8.2 09:47:26 10° NNW 09:58:12 59° NE 10:08:59 10° SE visible
23 Sep 8.3 12:00:36 10° NW 12:09:52 34° WSW 12:19:17 10° SSW visible
24 Sep 9.3 02:18:16 10° WSW 02:28:58 40° NW 02:39:20 10° NNE visible
24 Sep 10.1 04:41:25 10° NW 04:45:47 13° NNW 04:50:05 10° N visible
24 Sep 9.9 07:00:42 10° N 07:05:36 13° NNE 07:10:27 10° NE visible
24 Sep 8.6 09:11:32 10° NNW 09:21:54 45° NE 09:32:15 10° ESE visible
24 Sep 8.0 11:24:00 10° NW 11:34:09 47° WSW 11:44:27 10° S visible
